Location: Unspecified
(34.4950°S, 58.5160°W)
Time: 00:59:50
(UTC+00:00)

BlueWalker 3 - Pass Details

Date: 19 April 2026
Orbit: 447 x 458 km, 53.2° (Epoch: 12 May)

Event Time Altitude Azimuth Distance (km) Brightness Sun altitude
Exits shadow 08:37:06 76° 86° (E) 474 1.8 -22.0°
Drops below altitude 10° 08:40:28 10° 47° (NE) 1,580 5.1 -21.3°
Sets 08:42:34 0° 46° (NE) 2,444 6.1 -20.8°
